Regional Weather Roundup
Issued by NWS State College, PA

Home | Current Version | Previous Version | Text Only | Print | Product List | Glossary Off
Versions: 1 2 3 4 5 6 7 8 9 10 11 12 13 14 15 16 17 18 19 20 21 22 23 24 25 26 27 28 29 30 31 32 33 34 35 36 37 38 39 40 41 42 43 44 45 46 47 48 49 50

000
ASUS41 KCTP 311110
RWRCTP

REGIONAL WEATHER ROUNDUP
NATIONAL WEATHER SERVICE STATE COLLEGE PA
700 AM EDT THU JUL 31 2014

Note: "fair" indicates few or no clouds below 12,000 feet with no
significant weather and/or obstructions to visibility.

* = STATION THAT DOES NOT REPORT PRECIPITATION /E.G. RAIN...SNOW...ETC/
    THUNDER OR FOG.

PAZ002>004-007>009-013>016-020>023-029>032-311200-
WESTERN PENNSYLVANIA

CITY           SKY/WX    TMP DP  RH WIND       PRES   REMARKS
ERIE           CLOUDY    62  57  83 SW7       30.01R
MEADVILLE      CLOUDY    58  57  97 SW6       30.05R FOG
FRANKLIN*      CLOUDY    57  55  94 SW7       30.07R
NEW CASTLE     CLOUDY    60  60 100 CALM      30.07R FOG
BEAVER COUNTY  CLOUDY    59  57  94 S6        30.00  FOG
BUTLER*        CLOUDY    59  55  88 S6        30.09R
PITTSBURGH INT CLOUDY    59  57  93 S3        30.07R
PITTSBURGH     CLOUDY    58  55  90 S8        30.07R FOG
INDIANA*       MOCLDY    59  57  94 SW6       30.13R
LATROBE        PTCLDY    57  57 100 SW9       30.10R
WASHINGTON CO* MOCLDY    57  55  94 SW6       30.09R
$$

PAZ004>006-010>012-017>019-024>028-033>037-041-042-045-046-049>053-311200-
CENTRAL PENNSYLVANIA

CITY           SKY/WX    TMP DP  RH WIND       PRES   REMARKS
BRADFORD       CLOUDY    56  54  93 CALM      30.06R
DUBOIS         CLOUDY    59  57  93 SW12      30.07R FOG
CLEARFIELD     FOG       55  55 100 S3        30.09R VSB 1/4
JOHNSTOWN      CLEAR     55  53  93 SW6       30.11R
ALTOONA        CLEAR     55  55 100 SW5       30.11R FOG
STATE COLLEGE  FOG       55  55 100 SW3       30.09R VSB 1/4
WILLIAMSPORT   CLOUDY    61  57  87 E6        30.06S FOG
SELINSGROVE    CLOUDY    60  59  96 CALM      30.09S FOG
FT INDIANTOWN  PTCLDY    57  57 100 CALM      30.10R FOG
CAPITAL CITY   CLEAR     59  59 100 CALM      30.09R FOG
HARRISBURG     PTCLDY    63  60  90 N3        30.08R FOG
YORK           CLEAR     57  56  96 CALM      30.09R FOG
$$

PAZ038>040-043-044-047-048-054-055-060>062-067>071-311200-
EASTERN PENNSYLVANIA

CITY           SKY/WX    TMP DP  RH WIND       PRES   REMARKS
SCRANTON       CLOUDY    59  56  89 CALM      30.09R
MOUNT POCONO   CLOUDY    58  55  90 CALM      30.11R
ALLENTOWN      CLOUDY    62  58  86 CALM      30.09R
QUAKERTOWN*    CLOUDY    59  57  94 CALM      30.10R
READING        MOCLDY    63  58  83 CALM      30.08R
LANCASTER      CLEAR     60  58  92 CALM      30.09R FOG
COATESVILLE    SUNNY     63  57  82 CALM      30.11R
POTTSTOWN      PTSUNNY   60  57  89 CALM      30.11R
BLUE BELL      MOSUNNY   61  59  94 CALM      30.09R
DOYLESTOWN     MOSUNNY   60  57  89 CALM      30.09R
WILLOW GROVE   NOT AVBL
NORTH PHILA    PTSUNNY   66  56  70 MISG      30.10S
PHILADELPHIA   MOSUNNY   66  57  72 S6        30.10R
$$


USA.gov is the U.S. government's official web portal to all federal, state and local government web resources and services.